XBBAM MMGL-MMMY

Flight info

Callsign XBBAM
Flight time N/A
Altitude 37000
Route OTOKI1B OTOKI J42 ZCL UT5 SLW SLW1B
Aircraft B738/M-SDE2E3FGHIRWXY/LB1

Departure

Time 2026-05-03 20:48
Airport Guadalajara International Airport (MMGL)

Arrival

Time N/A
Airport Monterrey International Airport (MMMY)
Time Latitude Longitude Altitude Speed Heading
2026-05-03 20:16 20.52444 -103.30131 5027 ft 0 kts 19°
2026-05-03 20:28 20.52443 -103.30131 5027 ft 0 kts 19°
2026-05-03 20:28 20.52430 -103.30136 5027 ft 2 kts 19°
2026-05-03 20:29 20.52416 -103.30141 5027 ft 2 kts 19°
2026-05-03 20:29 20.52403 -103.30151 5027 ft 2 kts 54°
2026-05-03 20:29 20.52397 -103.30164 5028 ft 2 kts 81°
2026-05-03 20:29 20.52397 -103.30177 5028 ft 0 kts 104°
2026-05-03 20:30 20.52399 -103.30184 5028 ft 1 kts 108°
2026-05-03 20:30 20.52400 -103.30185 5028 ft 0 kts 108°
2026-05-03 20:37 20.52396 -103.30173 5028 ft 2 kts 106°
2026-05-03 20:37 20.52393 -103.30160 5028 ft 0 kts 105°
2026-05-03 20:37 20.52393 -103.30159 5028 ft 0 kts 105°
2026-05-03 20:38 20.52389 -103.30145 5028 ft 6 kts 107°
2026-05-03 20:38 20.52371 -103.30088 5028 ft 9 kts 110°
2026-05-03 20:38 20.52350 -103.30028 5028 ft 8 kts 109°
2026-05-03 20:39 20.52333 -103.29975 5028 ft 7 kts 108°
2026-05-03 20:39 20.52314 -103.29922 5028 ft 7 kts 113°
2026-05-03 20:39 20.52291 -103.29870 5027 ft 7 kts 117°
2026-05-03 20:39 20.52266 -103.29817 5027 ft 7 kts 116°
2026-05-03 20:40 20.52243 -103.29773 5027 ft 5 kts 119°
2026-05-03 20:40 20.52226 -103.29740 5028 ft 4 kts 119°
2026-05-03 20:40 20.52209 -103.29703 5028 ft 8 kts 113°
2026-05-03 20:40 20.52184 -103.29631 5028 ft 0 kts 109°
2026-05-03 20:41 20.52178 -103.29610 5027 ft 5 kts 109°
2026-05-03 20:41 20.52159 -103.29553 5027 ft 6 kts 109°
2026-05-03 20:41 20.52144 -103.29505 5026 ft 9 kts 111°
2026-05-03 20:41 20.52078 -103.29467 5026 ft 13 kts 189°
2026-05-03 20:42 20.51979 -103.29511 5028 ft 17 kts 204°
2026-05-03 20:42 20.51913 -103.29541 5028 ft 0 kts 204°
2026-05-03 20:45 20.51912 -103.29541 5028 ft 0 kts 204°
2026-05-03 20:45 20.51908 -103.29543 5028 ft 6 kts 204°
2026-05-03 20:45 20.51835 -103.29575 5028 ft 11 kts 202°
2026-05-03 20:46 20.51832 -103.29645 5028 ft 10 kts 296°
2026-05-03 20:46 20.51835 -103.29652 5028 ft 0 kts 295°
2026-05-03 20:46 20.51837 -103.29656 5028 ft 3 kts 295°
2026-05-03 20:47 20.51931 -103.29870 5030 ft 66 kts 294°
2026-05-03 20:47 20.52209 -103.30540 5031 ft 127 kts 294°
2026-05-03 20:47 20.52641 -103.31574 5036 ft 177 kts 295°
2026-05-03 20:47 20.53173 -103.32835 5455 ft 186 kts 296°
2026-05-03 20:48 20.53703 -103.34068 6000 ft 189 kts 297°
2026-05-03 20:48 20.54222 -103.35492 5738 ft 215 kts 289°
2026-05-03 20:48 20.54700 -103.37046 5644 ft 234 kts 291°
2026-05-03 20:48 20.55312 -103.38682 6062 ft 238 kts 295°
2026-05-03 20:49 20.56001 -103.40334 6467 ft 250 kts 296°
2026-05-03 20:49 20.56723 -103.42026 7060 ft 253 kts 295°
2026-05-03 20:49 20.57446 -103.43731 7761 ft 252 kts 294°
2026-05-03 20:49 20.58149 -103.45401 8423 ft 252 kts 294°
2026-05-03 20:50 20.58898 -103.47106 9042 ft 256 kts 298°
2026-05-03 20:50 20.59990 -103.48663 9453 ft 271 kts 317°
2026-05-03 20:50 20.61668 -103.49699 9850 ft 288 kts 341°
2026-05-03 20:50 20.63694 -103.50005 10331 ft 301 kts 359°
2026-05-03 20:51 20.65799 -103.49595 10693 ft 319 kts 21°
2026-05-03 20:51 20.67651 -103.48203 11145 ft 332 kts 49°
2026-05-03 20:51 20.68772 -103.46035 11777 ft 336 kts 71°
2026-05-03 20:51 20.69402 -103.43629 12437 ft 340 kts 77°
2026-05-03 20:52 20.69902 -103.41178 13218 ft 341 kts 78°
2026-05-03 20:52 20.70394 -103.38673 13908 ft 346 kts 77°
2026-05-03 20:52 20.70933 -103.36177 14678 ft 347 kts 74°
2026-05-03 20:52 20.71433 -103.34560 15110 ft 349 kts 65°
2026-05-03 20:53 20.73387 -103.31857 16079 ft 346 kts 36°
2026-05-03 20:53 20.75479 -103.30557 16798 ft 344 kts 20°
2026-05-03 20:53 20.77731 -103.29722 17512 ft 345 kts 16°
2026-05-03 20:53 20.80034 -103.28932 18177 ft 348 kts 15°
2026-05-03 20:54 20.82338 -103.28140 18826 ft 351 kts 15°
2026-05-03 20:54 20.87030 -103.26505 20106 ft 357 kts 15°
2026-05-03 20:54 20.89408 -103.25671 20734 ft 360 kts 15°
2026-05-03 20:55 20.91777 -103.24838 21317 ft 363 kts 15°
2026-05-03 20:55 20.94183 -103.23991 21966 ft 364 kts 15°
2026-05-03 20:55 20.96627 -103.23130 22543 ft 367 kts 15°
2026-05-03 20:55 20.99045 -103.22278 23065 ft 371 kts 15°
2026-05-03 20:56 21.01509 -103.21410 23613 ft 374 kts 15°
2026-05-03 20:56 21.04001 -103.20532 24135 ft 378 kts 15°
2026-05-03 20:56 21.06533 -103.19639 24636 ft 382 kts 15°
2026-05-03 20:56 21.09074 -103.18743 25141 ft 385 kts 14°
2026-05-03 20:57 21.11622 -103.17844 25631 ft 388 kts 14°
2026-05-03 20:57 21.14179 -103.16942 26098 ft 392 kts 14°
2026-05-03 20:57 21.16792 -103.16019 26586 ft 394 kts 14°
2026-05-03 20:57 21.19381 -103.15104 27041 ft 398 kts 14°
2026-05-03 20:58 21.22041 -103.14164 27548 ft 399 kts 14°
2026-05-03 20:58 21.24687 -103.13228 27940 ft 404 kts 14°
2026-05-03 20:58 21.27384 -103.12274 28380 ft 406 kts 14°
2026-05-03 20:58 21.30067 -103.11324 28800 ft 409 kts 14°
2026-05-03 20:59 21.32762 -103.10371 29209 ft 412 kts 13°
2026-05-03 20:59 21.35538 -103.09489 29644 ft 412 kts 11°
2026-05-03 20:59 21.38329 -103.08730 30112 ft 413 kts
2026-05-03 20:59 21.41112 -103.08032 30506 ft 415 kts
2026-05-03 21:00 21.43959 -103.07336 30913 ft 416 kts
2026-05-03 21:00 21.44873 -103.07112 31090 ft 416 kts
2026-05-03 21:00 21.49582 -103.05943 31718 ft 420 kts
2026-05-03 21:00 21.52459 -103.05214 32148 ft 420 kts
2026-05-03 21:01 21.55342 -103.04475 32525 ft 422 kts
2026-05-03 21:01 21.58198 -103.03737 32954 ft 423 kts
2026-05-03 21:01 21.61079 -103.02989 33243 ft 427 kts
2026-05-03 21:01 21.63955 -103.02242 33568 ft 430 kts
2026-05-03 21:02 21.66873 -103.01482 33825 ft 434 kts
2026-05-03 21:02 21.69854 -103.00705 34149 ft 437 kts
2026-05-03 21:02 21.72814 -102.99931 34502 ft 439 kts
2026-05-03 21:02 21.75811 -102.99147 34768 ft 443 kts
2026-05-03 21:03 21.78796 -102.98364 35206 ft 443 kts
2026-05-03 21:03 21.81786 -102.97578 35741 ft 440 kts
2026-05-03 21:03 21.84780 -102.96790 36115 ft 441 kts
2026-05-03 21:03 21.87754 -102.96009 36418 ft 443 kts
2026-05-03 21:04 21.90761 -102.95222 36719 ft 445 kts
2026-05-03 21:04 21.93778 -102.94432 37042 ft 445 kts
2026-05-03 21:04 21.96798 -102.93639 37377 ft 446 kts
2026-05-03 21:04 21.99836 -102.92846 37415 ft 450 kts
2026-05-03 21:05 22.05897 -102.91264 37424 ft 444 kts
2026-05-03 21:05 22.11907 -102.89688 37435 ft 444 kts
2026-05-03 21:06 22.17902 -102.88109 37438 ft 444 kts
2026-05-03 21:06 22.23931 -102.86518 37446 ft 444 kts
2026-05-03 21:07 22.29915 -102.84937 37450 ft 442 kts
2026-05-03 21:07 22.35898 -102.83356 37447 ft 443 kts
2026-05-03 21:08 22.41902 -102.81770 37450 ft 442 kts
2026-05-03 21:08 22.47871 -102.80191 37448 ft 442 kts
2026-05-03 21:09 22.53827 -102.78614 37447 ft 442 kts
2026-05-03 21:09 22.59842 -102.77022 37446 ft 442 kts
2026-05-03 21:10 22.65810 -102.75439 37452 ft 442 kts
2026-05-03 21:10 22.71777 -102.73853 37451 ft 440 kts
2026-05-03 21:11 22.77723 -102.72275 37446 ft 440 kts
2026-05-03 21:11 22.83693 -102.70681 37441 ft 441 kts
2026-05-03 21:12 22.89548 -102.68549 37438 ft 448 kts 17°
2026-05-03 21:12 22.95099 -102.65427 37438 ft 453 kts 23°
2026-05-03 21:13 23.00529 -102.61911 37427 ft 454 kts 25°
2026-05-03 21:13 23.05937 -102.58327 37428 ft 455 kts 25°
2026-05-03 21:14 23.11325 -102.54769 37416 ft 454 kts 24°
2026-05-03 21:14 23.16752 -102.51209 37409 ft 453 kts 24°
2026-05-03 21:15 23.22149 -102.47683 37404 ft 452 kts 24°
2026-05-03 21:15 23.27525 -102.44176 37401 ft 453 kts 24°
2026-05-03 21:16 23.32941 -102.40643 37394 ft 454 kts 24°
2026-05-03 21:16 23.38374 -102.37097 37388 ft 452 kts 24°
2026-05-03 21:17 23.42888 -102.34148 37383 ft 453 kts 24°
2026-05-03 21:17 23.49225 -102.30003 37380 ft 452 kts 24°
2026-05-03 21:18 23.54632 -102.26463 37379 ft 451 kts 24°
2026-05-03 21:18 23.60083 -102.22891 37371 ft 450 kts 23°
2026-05-03 21:19 23.65514 -102.19330 37375 ft 453 kts 23°
2026-05-03 21:19 23.70920 -102.15777 37370 ft 451 kts 24°
2026-05-03 21:20 23.76343 -102.12209 37359 ft 450 kts 24°
2026-05-03 21:20 23.81681 -102.08691 37357 ft 450 kts 23°
2026-05-03 21:21 23.87096 -102.05128 37352 ft 449 kts 23°
2026-05-03 21:21 23.92461 -102.01582 37345 ft 446 kts 23°
2026-05-03 21:22 23.97843 -101.98032 37335 ft 447 kts 23°
2026-05-03 21:22 24.03225 -101.94481 37335 ft 450 kts 23°
2026-05-03 21:23 24.08630 -101.90910 37328 ft 448 kts 23°
2026-05-03 21:23 24.13736 -101.87532 37327 ft 449 kts 23°
2026-05-03 21:24 24.19088 -101.83986 37318 ft 448 kts 23°
2026-05-03 21:24 24.24477 -101.80415 37314 ft 448 kts 23°
2026-05-03 21:25 24.28645 -101.77650 37309 ft 447 kts 23°
2026-05-03 21:25 24.34054 -101.74058 37310 ft 448 kts 22°
2026-05-03 21:26 24.39463 -101.70465 37319 ft 450 kts 22°
2026-05-03 21:26 24.40371 -101.69862 37323 ft 448 kts 22°